STARLINK-35277

Last updated on Mon Oct 20 2025 00:02:07 GMT+0000 (Coordinated Universal Time)

1 65832U 25221K 25292.25002315 -.01557475 00000+0 -28615-1 0 9992 2 65832 53.1603 27.8373 0001102 81.1514 253.3242 15.51583182 4439
UTC large
Height (km)
Speed (km/s)
/
Latitude / Longitude
Inclination (degrees)
Orbital Period (minutes)
Azimuth
Elevation
Range (km)
Doppler Factor

Next 0 passes for location: London (51.5072 / 0.1276)

Sorry there are no passes over London.